Tracking 29892 objects as of 21-Nov-2024
HD Live streaming from Space Station
objects crossing your sky now

DELTA 1 DEB

Track DELTA 1 DEB now!
10-day predictions


NORAD ID: 12175
Int'l Code: 1978-026Q
Perigee: 866.0 km
Apogee: 957.4 km
Inclination: 99.3 °
Period: 103.1 minutes
Semi major axis: 7282 km
RCS: 0.3452 m2 (medium)
Launch date: March 5, 1978
Source: United States (US)
Launch site: AIR FORCE WESTERN TEST RANGE (AFWTR)

Note: This is SATELLITE DEBRIS
Your satellite tracking list
Your tracking list is empty




NASA's NSSDC Master Catalog

Two Line Element Set (TLE):
1 12175U 78026Q   24326.15927868  .00000293  00000-0  23938-3 0  9994
2 12175  99.2765 206.5679 0062764 172.2447 339.8770 13.96905165227455
Source of the keplerian elements: AFSPC